Regional Weather Roundup
Issued by NWS Upton, NY

Current Version | Previous Version | Text Only | Print | Product List | Glossary On
Versions: 1 2 3 4 5 6 7 8 9 10 11 12 13 14 15 16 17 18 19 20 21 22 23 24 25 26 27 28 29 30 31 32 33 34 35 36 37 38 39 40 41 42 43 44 45 46 47 48 49 50
000 ASUS41 KOKX 290605 RWROKX REGIONAL WEATHER ROUNDUP NATIONAL WEATHER SERVICE NEW YORK NY 100 AM EST THU JAN 29 2015 NOTE: "FAIR" INDICATES FEW OR NO CLOUDS BELOW 12,000 FEET WITH NO SIGNIFICANT WEATHER AND/OR OBSTRUCTIONS TO VISIBILITY. NYZ071-072-176-178-NJZ106-104-290700- NEW YORK CITY METRO AREA CITY SKY/WX TMP DP RH WIND PRES REMARKS CENTRAL PARK CLEAR 24 1 36 MISG 30.30R LAGUARDIA APRT CLEAR 24 5 44 N8 30.29R WCI 15 KENNEDY INTL CLEAR 21 4 47 N5 30.30R WCI 15 NEWARK/LIBERTY CLEAR 21 3 45 NW5 30.29S WCI 15 BRNX BOT. GARD N/A N/A N/A N/A NW9 30.30R TETERBORO CLEAR 22 0 38 N6 30.29R WCI 14 $$ NYZ177-179-078>081-290700- LONG ISLAND NEW YORK CITY SKY/WX TMP DP RH WIND PRES REMARKS FARMINGDALE CLEAR 23 1 38 N7 30.27R WCI 15 ISLIP CLEAR 21 2 43 N9 30.25R WCI 11 SHIRLEY CLEAR 19 5 54 N7 30.26S WCI 10 WESTHAMPTON CLEAR 20 4 50 N6 30.27R WCI 12 MONTAUK POINT N/A 25 6 44 N8 30.26R WCI 16 $$ NYZ052-065-067-290700- HUDSON VALLEY CITY SKY/WX TMP DP RH WIND PRES REMARKS WHITE PLAINS CLEAR 17 0 47 NW15 30.24R WCI 2 NEWBURGH CLEAR 7 1 78 CALM 30.29R MONTGOMERY CLEAR 2 -4 76 CALM 30.28S POUGHKEEPSIE CLEAR 0 -5 79 CALM 30.32R ALBANY PTCLDY 3 -4 72 CALM 30.35R $$ NJZ001-105-106-008-010-013-015-019>022-104-290700- NEW JERSEY CITY SKY/WX TMP DP RH WIND PRES REMARKS NEWARK/LIBERTY CLEAR 21 3 45 NW5 30.29S WCI 15 TETERBORO CLEAR 22 0 38 N6 30.29R WCI 14 CALDWELL CLEAR 16 4 59 CALM 30.29S MORRISTOWN CLEAR 16 1 53 CALM 30.28F SOMERVILLE CLEAR 16 2 54 N3 30.27F SUSSEX CLEAR 5 -1 76 CALM 30.27S ANDOVER N/A 3 -1 83 CALM 30.27S TRENTON CLEAR 21 0 39 CALM 30.27F MILLVILLE CLEAR 20 5 52 W5 30.29S WCI 13 ATLANTIC CITY CLEAR 20 4 50 N6 30.29S WCI 12 WRIGHTSTOWN CLEAR 19 2 47 NW7 30.26S WCI 10 TOMS RIVER CLEAR 9 3 78 CALM 30.29R BELMAR CLEAR 19 1 45 NW7 30.27S WCI 10 $$ PAZ047>061-062-071-290700- EASTERN PENNSYLVANIA CITY SKY/WX TMP DP RH WIND PRES REMARKS PHILADELPHIA CLEAR 26 3 37 N7 30.31S WCI 18 ALLENTOWN PTCLDY 20 2 45 W5 30.30S WCI 13 SCRANTON CLEAR 13 4 67 E6 30.27F WCI 4 $$ CTZ002-004>006-009-010-012-RIZ004-006-007-MAZ004-011-015-290700- SOUTHERN NEW ENGLAND IN CT CITY SKY/WX TMP DP RH WIND PRES REMARKS BRADLEY INTL PTCLDY 12 -1 56 N7 30.26R WCI 1 HARTFORD PTCLDY 15 2 56 N3 30.28R DANBURY CLEAR 9 -3 58 CALM 30.27R WTRBRY/OXFORD CLEAR 12 -2 52 NW6 30.23R WCI 3 BRIDGEPORT CLEAR 18 1 47 W3 30.28R MERIDEN CLEAR 12 1 61 CALM 30.27R NEW HAVEN CLEAR 17 2 51 CALM 30.26R CHESTER FAIR 19 3 49 N9 30.23R WCI 9 GROTON CLEAR 16 0 49 N9 30.25R WCI 4 WILLIMANTIC CLEAR 2 -4 76 NE3 30.26R IN RI CITY SKY/WX TMP DP RH WIND PRES REMARKS PROVIDENCE CLEAR 15 -1 49 N6 30.24S WCI 6 BLOCK ISLAND CLEAR 21 3 45 N10G16 30.21R WCI 10 WESTERLY CLEAR 14 -2 49 N6 30.25R WCI 5 IN MA CITY SKY/WX TMP DP RH WIND PRES REMARKS BOSTON CLEAR 16 -1 47 NW5 30.24S WCI 9 WORCESTER PTCLDY 12 -6 44 NW10 30.17R WCI -1 WESTFIELD PTCLDY 6 -1 73 N5 30.26S WCI -3 PROVINCETOWN CLOUDY 28 18 64 N12G17 30.20R WCI 18 NANTUCKET CLOUDY 28 20 71 NW15 30.18S WCI 16 $$ ANZ330-335-338-340-345-350-353-355-290700- COASTAL MARINE OBSERVATIONS STATION/POSITION TIME SKY/WX TEMP WIND PRES VSBY WAVE AIR SEA DIR/SP/G HT/PER (UTC) (F) (DEG/KT/KT) (MB) (MI) (FT/S) NY HARB ENTRANCE 0600 29 40 340/ 14/ 16 1024.8 2/11 4S FIRE IS 0500 37 N/A 2/12 20S FIRE ISLAND 0500 42 1024.4 5/ 5 23SW MTP 0600 N/A 4/ 4 HUDSON CANYON NOT AVBL EXECUTION ROCKS 0600 24 33 330/ 10/ 14 N/A WESTERN LI SOUND 0600 25 350/ 8/ 12 N/A 0 CENTRAL LI SOUND 0500 24 35 360/ 12/ 16 N/A 2/ 2 EASTERN LI SOUND NOT AVBL ROBBINS REEF 0500 25 330/ 9/ 11 1024.3 $$ >>>>>>>>>>>>>>>>>>>>>>>>>>>> KEY <<<<<<<<<<<<<<<<<<<<<<<<<<< > < > SKY/WX - SKY CONDITION/PRESENT WEATHER < > TMP - TEMPERATURE IN FAHRENHEIT < > DP - DEWPOINT IN FAHRENHEIT < > RH - RELATIVE HUMIDITY IN PERCENT < > WIND - DIRECTION AND SPEED IN MPH < > PRES - MEAN SEA LEVEL PRESSURE IN INCHES OF HG < > WCI - WIND CHILL INDEX < > VSB - VISIBILITY IN MILES < > HX - HEAT INDEX < > TC - TEMPERATURE IN CELSIUS < > VRB - VARIABLE WIND DIRECTION < > < >>>>>>>>>>>>>>>>>>>>>>>>>>>> KEY <<<<<<<<<<<<<<<<<<<<<<<<<<<

USA.gov is the U.S. government's official web portal to all federal, state and local government web resources and services.